Regional Weather Roundup
Issued by NWS Jackson, KY

Home | Current Version | Previous Version | Text Only | Print | Product List | Glossary Off
Versions: 1 2 3 4 5 6 7 8 9 10 11 12 13 14 15 16 17 18 19 20 21 22 23 24 25 26 27 28 29 30 31 32 33 34 35 36 37 38 39 40 41 42 43 44 45 46 47 48 49 50

397
ASUS43 KJKL 300110
RWRJKL

EAST KENTUCKY HOURLY WEATHER ROUNDUP
NATIONAL WEATHER SERVICE JACKSON KY
900 PM EDT THU SEP 29 2016

NOTE: "FAIR" INDICATES FEW OR NO CLOUDS BELOW 12,000 FEET WITH
NO SIGNIFICANT WEATHER AND/OR OBSTRUCTIONS TO VISIBILITY.

* THESE REPORTS ARE NOT UNDER NWS QUALITY CONTROL AND MAY NOT
  REPORT WEATHER SUCH AS PRECIPITATION AND FOG.

KYZ079-080-083-085-087-088-110-112-115-119-120-300200
...EASTERN KENTUCKY...

CITY           SKY/WX    TMP DP  RH WIND       PRES   REMARKS
JACKSON        CLOUDY    56  54  93 CALM      30.08R
LONDON         CLOUDY    57  50  77 NW7       30.10R
SOMERSET*      LGT RAIN  55  46  71 CALM      30.12R
MONTICELLO*    CLOUDY    56  53  90 NE9       30.13R
WILLIAMSBURG*  CLOUDY    54  54 100 SW3       30.10S
MIDDLESBORO*   CLOUDY    54  52  92 CALM      30.10R
HARLAN APT*    CLOUDY    54  52  94 CALM      30.09S
PIKE CO APT*   FOG       54  54 100 CALM      30.08S VSB 1/4
BIG SANDY APT* CLOUDY    56  56 100 SW6       30.08R
MOREHEAD APT*  CLOUDY    57  54  88 CALM      30.09S
ASHLAND*       CLOUDY    59  57  94 CALM      30.04S
$$

KYZ035-036-041-042-044-050-067-078-099-300200
...CENTRAL KENTUCKY...

CITY           SKY/WX    TMP DP  RH WIND       PRES   REMARKS
MT STERLING*   MOCLDY   N/A N/A N/A CALM      30.09S
FLEMING/MASON* CLOUDY    57  55  92 NW3       30.08S
DANVILLE*      LGT RAIN  54  52  94 E3        30.12R
LEXINGTON      PTCLDY    57  51  80 W5        30.09S
FRANKFORT      CLOUDY    57  52  83 SW3       30.08S
LOUISVILLE     MOCLDY    59  53  80 SW6       30.10R
LEBANON*         N/A     55  54  94 CALM      30.11R
GLASGOW*       FOG      N/A N/A N/A CALM      30.11S VSB 3/4
BOWLING GREEN  CLOUDY    58  53  84 W3        30.11S
$$

KYZ091>093-OHZ055-061-077-WVZ005-015-034-035-042-300200
...SOUTHERN OHIO/WEST VIRGINIA...

CITY           SKY/WX    TMP DP  RH WIND       PRES   REMARKS
COVINGTON      MOCLDY    60  56  86 NW5       30.08S
COLUMBUS       CLOUDY    62  61  96 NE3       30.09R
DAYTON         CLOUDY    56  54  93 NE7       30.11R
WILMINGTON     CLOUDY    58  55  90 NW8       30.07F
HUNTINGTON     CLOUDY    58  56  93 CALM      30.05R
CHARLESTON     FOG       59  58  96 CALM      30.05R VSB 1/4
PINEVILLE*     CLOUDY    59  56  90 MISG      30.12R
BECKLEY        RAIN      57  56  96 CALM      30.08R FOG
BLUEFIELD      LGT RAIN  56  55  97 CALM      30.11R
LOGAN CO APT*  TSTM      57  57 100 CALM      30.06F VSB 1
$$

VAZ002-007-008-TNZ017-027-036-066-071-300200
...SOUTHWEST VIRGINIA/EAST TENNESSEE...

CITY           SKY/WX    TMP DP  RH WIND       PRES   REMARKS
WISE*          CLOUDY    54  52  94 NW3       30.11S
JONESVILLE*    LGT RAIN  57  54  88 CALM      30.11S
ABINGDON*      CLOUDY    58  56  94 NW3       30.08R
BRISTOL        LGT RAIN  60  54  80 NW3       30.08R
MORRISTOWN*    CLOUDY    61  50  67 N3        30.07S
SEVIERVILLE*   CLOUDY    63  46  55 NW6       30.07R
KNOXVILLE      MOCLDY    64  47  53 NW5       30.07R
OAK RIDGE      MOCLDY    61  47  59 CALM      30.10R
CROSSVILLE     CLEAR     51  47  86 W5        30.12R
NASHVILLE      PTCLDY    56  51  84 W3        30.12S
$$

...KEY TO REMARKS...
VSB - VISIBILITY IN MILES
WCI - WIND CHILL INDEX
HX  - HEAT INDEX

$$




USA.gov is the U.S. government's official web portal to all federal, state and local government web resources and services.